| time (UTC) | temp F | wind direction | speed knots | gust knots | rain 1hr in | rain 24hr in | rain mn in | humidity % | barometer mb |
| 20260503000422 | 48 | 138 | 2.6 | 4.3 | 0.00 | 0.04 | 0.04 | 85 | 1011.0 |
| 20260502235934 | 48 | 107 | 2.6 | 4.3 | 0.00 | 0.04 | 0.04 | 86 | 1011.1 |
| 20260502235428 | 48 | 112 | 2.6 | 5.2 | 0.00 | 0.04 | 0.04 | 86 | 1011.1 |
| 20260502234919 | 48 | 107 | 2.6 | 5.2 | 0.00 | 0.04 | 0.04 | 87 | 1011.0 |
| 20260502234430 | 48 | 133 | 1.7 | 3.5 | 0.00 | 0.04 | 0.04 | 87 | 1011.1 |
| 20260502233921 | 48 | 22 | 1.7 | 3.5 | 0.00 | 0.04 | 0.04 | 86 | 1011.1 |
| 20260502233432 | 49 | 78 | 0.9 | 2.6 | 0.00 | 0.04 | 0.04 | 87 | 1011.1 |
| 20260502232922 | 48 | 22 | 0.9 | 1.7 | 0.00 | 0.04 | 0.04 | 88 | 1010.9 |
| 20260502232413 | 49 | 9 | 0.0 | 0.0 | 0.00 | 0.04 | 0.04 | 89 | 1010.9 |
| 20260502231945 | 48 | 360 | 0.0 | 0.0 | 0.00 | 0.04 | 0.04 | 89 | 1011.0 |
| 20260502231414 | 48 | 14 | 0.0 | 3.5 | 0.00 | 0.04 | 0.04 | 89 | 1011.0 |
| 20260502230947 | 48 | 58 | 2.6 | 5.2 | 0.00 | 0.04 | 0.04 | 89 | 1010.9 |
| 20260502230437 | 48 | 92 | 3.5 | 5.2 | 0.00 | 0.04 | 0.04 | 89 | 1011.0 |
| 20260502225911 | 48 | 104 | 4.3 | 5.2 | 0.00 | 0.04 | 0.04 | 89 | 1011.0 |
| 20260502225443 | 48 | 107 | 3.5 | 3.5 | 0.00 | 0.04 | 0.04 | 88 | 1011.1 |
| 20260502224913 | 48 | 68 | 0.0 | 1.7 | 0.00 | 0.04 | 0.04 | 87 | 1011.1 |
| 20260502224424 | 48 | 313 | 0.0 | 0.0 | 0.00 | 0.04 | 0.04 | 87 | 1011.1 |
| 20260502223915 | 48 | 313 | 0.0 | 0.9 | 0.00 | 0.04 | 0.04 | 87 | 1011.0 |
| 20260502223426 | 48 | 313 | 0.0 | 2.6 | 0.00 | 0.04 | 0.04 | 87 | 1011.0 |
| 20260502222918 | 48 | 313 | 1.7 | 2.6 | 0.00 | 0.04 | 0.04 | 86 | 1010.9 |
| 20260502222450 | 48 | 310 | 0.0 | 3.5 | 0.00 | 0.04 | 0.04 | 85 | 1010.9 |
| 20260502221941 | 48 | 291 | 1.7 | 4.3 | 0.00 | 0.04 | 0.04 | 85 | 1011.2 |
| 20260502221431 | 49 | 263 | 2.6 | 7.0 | 0.00 | 0.04 | 0.04 | 83 | 1011.2 |
| 20260502220926 | 49 | 270 | 5.2 | 8.7 | 0.00 | 0.04 | 0.04 | 82 | 1011.1 |
| 20260502220417 | 49 | 259 | 6.1 | 8.7 | 0.00 | 0.04 | 0.04 | 83 | 1011.2 |
| 20260502215927 | 50 | 289 | 2.6 | 10.4 | 0.00 | 0.04 | 0.04 | 83 | 1011.2 |
| 20260502215418 | 50 | 268 | 5.2 | 10.4 | 0.00 | 0.04 | 0.04 | 83 | 1011.1 |
| 20260502214929 | 50 | 259 | 1.7 | 5.2 | 0.00 | 0.04 | 0.04 | 85 | 1011.1 |
| 20260502214420 | 50 | 247 | 3.5 | 8.7 | 0.00 | 0.04 | 0.04 | 85 | 1011.0 |
| 20260502213931 | 50 | 170 | 4.3 | 8.7 | 0.00 | 0.04 | 0.04 | 84 | 1011.0 |
| 20260502213422 | 50 | 189 | 3.5 | 7.0 | 0.00 | 0.04 | 0.04 | 84 | 1010.9 |
| 20260502212917 | 50 | 176 | 3.5 | 10.4 | 0.00 | 0.04 | 0.04 | 84 | 1010.8 |
| 20260502212448 | 50 | 112 | 6.1 | 11.3 | 0.00 | 0.04 | 0.04 | 84 | 1010.9 |
| 20260502211918 | 50 | 133 | 7.8 | 12.2 | 0.00 | 0.04 | 0.04 | 83 | 1010.9 |
| 20260502211430 | 51 | 169 | 6.1 | 12.2 | 0.00 | 0.04 | 0.04 | 83 | 1010.9 |
| 20260502210921 | 51 | 124 | 6.1 | 10.4 | 0.00 | 0.04 | 0.04 | 82 | 1010.9 |
| 20260502210411 | 51 | 128 | 5.2 | 11.3 | 0.00 | 0.04 | 0.04 | 82 | 1010.9 |
| 20260502205923 | 51 | 115 | 7.0 | 11.3 | 0.00 | 0.04 | 0.04 | 81 | 1010.8 |
| 20260502205413 | 51 | 154 | 7.8 | 11.3 | 0.00 | 0.04 | 0.04 | 81 | 1010.9 |
| 20260502204924 | 51 | 100 | 6.1 | 11.3 | 0.00 | 0.04 | 0.04 | 81 | 1010.9 |
| 20260502204420 | 51 | 174 | 7.8 | 11.3 | 0.00 | 0.04 | 0.04 | 80 | 1010.9 |
| 20260502203912 | 51 | 169 | 5.2 | 12.2 | 0.00 | 0.04 | 0.04 | 80 | 1010.8 |
| 20260502203423 | 51 | 161 | 6.1 | 13.9 | 0.00 | 0.04 | 0.04 | 80 | 1010.8 |
| 20260502202914 | 52 | 152 | 7.0 | 14.8 | 0.00 | 0.04 | 0.04 | 78 | 1010.9 |
| 20260502202447 | 52 | 143 | 7.0 | 13.0 | 0.00 | 0.04 | 0.04 | 78 | 1010.9 |
| 20260502201916 | 52 | 191 | 6.1 | 14.8 | 0.00 | 0.04 | 0.04 | 79 | 1011.0 |
| 20260502201427 | 52 | 176 | 8.7 | 14.8 | 0.00 | 0.04 | 0.04 | 79 | 1010.9 |
| 20260502200918 | 52 | 165 | 7.8 | 13.9 | 0.00 | 0.04 | 0.04 | 79 | 1011.0 |
| 20260502200429 | 52 | 152 | 7.0 | 13.9 | 0.00 | 0.04 | 0.04 | 78 | 1011.2 |
| 20260502195924 | 51 | 143 | 6.1 | 13.9 | 0.00 | 0.04 | 0.04 | 79 | 1011.2 |
| 20260502195415 | 52 | 149 | 8.7 | 13.9 | 0.00 | 0.04 | 0.04 | 77 | 1011.2 |
| 20260502194926 | 52 | 191 | 8.7 | 15.6 | 0.00 | 0.04 | 0.04 | 78 | 1011.2 |
| 20260502194417 | 52 | 170 | 8.7 | 19.1 | 0.00 | 0.04 | 0.04 | 77 | 1011.3 |
| 20260502193928 | 52 | 180 | 11.3 | 16.5 | 0.00 | 0.04 | 0.04 | 77 | 1011.3 |
| 20260502193420 | 52 | 142 | 9.6 | 16.5 | 0.00 | 0.04 | 0.04 | 77 | 1011.3 |
| 20260502192930 | 52 | 162 | 11.3 | 16.5 | 0.00 | 0.04 | 0.04 | 78 | 1011.4 |
| 20260502192441 | 52 | 205 | 9.6 | 14.8 | 0.00 | 0.04 | 0.04 | 78 | 1011.5 |
| 20260502191930 | 52 | 207 | 7.8 | 13.9 | 0.00 | 0.04 | 0.04 | 81 | 1011.4 |
| 20260502191425 | 52 | 189 | 7.8 | 14.8 | 0.00 | 0.04 | 0.04 | 80 | 1011.6 |
| 20260502190915 | 51 | 130 | 7.8 | 14.8 | 0.01 | 0.04 | 0.04 | 81 | 1011.7 |
| 20260502190427 | 51 | 178 | 7.8 | 13.0 | 0.01 | 0.04 | 0.04 | 80 | 1011.7 |
| 20260502185919 | 51 | 114 | 5.2 | 10.4 | 0.01 | 0.04 | 0.04 | 82 | 1011.8 |
| 20260502185429 | 50 | 318 | 4.3 | 12.2 | 0.01 | 0.04 | 0.04 | 83 | 1011.7 |
| 20260502184920 | 50 | 204 | 7.8 | 12.2 | 0.01 | 0.04 | 0.04 | 82 | 1011.8 |
| 20260502184411 | 49 | 133 | 5.2 | 10.4 | 0.02 | 0.04 | 0.04 | 84 | 1011.8 |
| 20260502183944 | 49 | 178 | 6.1 | 11.3 | 0.02 | 0.04 | 0.04 | 86 | 1011.9 |
| 20260502183414 | 49 | 180 | 6.1 | 13.0 | 0.02 | 0.04 | 0.04 | 85 | 1012.0 |
| 20260502182928 | 49 | 183 | 4.3 | 11.3 | 0.02 | 0.04 | 0.04 | 88 | 1011.9 |
| 20260502182420 | 49 | 178 | 7.0 | 11.3 | 0.02 | 0.04 | 0.04 | 87 | 1011.9 |
| 20260502181930 | 49 | 131 | 6.1 | 9.6 | 0.03 | 0.04 | 0.04 | 87 | 1012.1 |
| 20260502181421 | 49 | 144 | 4.3 | 11.3 | 0.02 | 0.03 | 0.03 | 86 | 1012.0 |
| 20260502180912 | 49 | 214 | 6.1 | 11.3 | 0.02 | 0.03 | 0.03 | 85 | 1012.0 |
| 20260502180424 | 49 | 218 | 4.3 | 9.6 | 0.02 | 0.03 | 0.03 | 85 | 1012.1 |
| 20260502170441 | 50 | 160 | 7.8 | 13.9 | 0.01 | 0.01 | 0.01 | 76 | 1012.2 |
| 20260502163921 | 50 | 251 | 2.6 | 5.2 | 0.01 | 0.01 | 0.01 | 76 | 1012.3 |
| 20260502163412 | 50 | 246 | 4.3 | 7.8 | 0.01 | 0.01 | 0.01 | 75 | 1012.1 |
| 20260502162924 | 50 | 242 | 4.3 | 8.7 | 0.01 | 0.01 | 0.01 | 73 | 1012.1 |
| 20260502162416 | 51 | 201 | 5.2 | 11.3 | 0.01 | 0.01 | 0.01 | 70 | 1012.1 |
| 20260502161948 | 51 | 213 | 6.1 | 13.0 | 0.01 | 0.01 | 0.01 | 67 | 1012.1 |
| 20260502161419 | 52 | 202 | 5.2 | 9.6 | 0.01 | 0.01 | 0.01 | 70 | 1012.1 |
| 20260502160914 | 52 | 134 | 3.5 | 8.7 | 0.00 | 0.00 | 0.00 | 75 | 1012.6 |
| 20260502160426 | 52 | 109 | 5.2 | 8.7 | 0.00 | 0.00 | 0.00 | 73 | 1012.7 |
| 20260502151929 | 53 | 198 | 5.2 | 9.6 | 0.00 | 0.00 | 0.00 | 68 | 1012.8 |
| 20260502151421 | 52 | 200 | 6.1 | 9.6 | 0.00 | 0.00 | 0.00 | 68 | 1012.7 |
| 20260502150912 | 52 | 56 | 4.3 | 11.3 | 0.00 | 0.00 | 0.00 | 76 | 1012.9 |
| 20260502150424 | 52 | 202 | 6.1 | 11.3 | 0.00 | 0.00 | 0.00 | 74 | 1013.0 |
| 20260502130418 | 48 | 254 | 2.6 | 7.8 | 0.00 | 0.00 | 0.00 | 83 | 1014.0 |
| 20260502123427 | 49 | 256 | 8.7 | 13.9 | 0.00 | 0.00 | 0.00 | 80 | 1013.9 |
| 20260502122919 | 49 | 253 | 7.0 | 13.0 | 0.00 | 0.00 | 0.00 | 79 | 1013.8 |
| 20260502122414 | 49 | 245 | 8.7 | 13.0 | 0.00 | 0.00 | 0.00 | 79 | 1013.7 |
| 20260502121947 | 49 | 253 | 8.7 | 10.4 | 0.00 | 0.00 | 0.00 | 79 | 1013.6 |
| 20260502121418 | 49 | 196 | 7.0 | 9.6 | 0.00 | 0.00 | 0.00 | 78 | 1013.5 |
| 20260502120950 | 49 | 256 | 6.1 | 9.6 | 0.00 | 0.00 | 0.00 | 78 | 1013.3 |
| 20260502120442 | 49 | 243 | 5.2 | 9.6 | 0.00 | 0.00 | 0.00 | 78 | 1013.2 |
| 20260502115913 | 49 | 197 | 5.2 | 10.4 | 0.00 | 0.00 | 0.00 | 78 | 1013.1 |
| 20260502115425 | 49 | 233 | 5.2 | 7.8 | 0.00 | 0.00 | 0.00 | 78 | 1013.2 |
| 20260502114917 | 49 | 209 | 5.2 | 7.8 | 0.00 | 0.00 | 0.00 | 78 | 1013.0 |
| 20260502114428 | 49 | 207 | 3.5 | 6.1 | 0.00 | 0.00 | 0.00 | 79 | 1012.9 |
| 20260502113920 | 48 | 236 | 3.5 | 7.0 | 0.00 | 0.00 | 0.00 | 79 | 1012.8 |
| 20260502113433 | 48 | 196 | 4.3 | 7.0 | 0.00 | 0.00 | 0.00 | 80 | 1012.8 |
| 20260502112928 | 47 | 192 | 3.5 | 5.2 | 0.00 | 0.00 | 0.00 | 80 | 1012.8 |
| 20260502112419 | 47 | 284 | 2.6 | 5.2 | 0.00 | 0.00 | 0.00 | 80 | 1012.6 |
| 20260502111911 | 47 | 207 | 2.6 | 7.8 | 0.00 | 0.00 | 0.00 | 80 | 1012.7 |
| 20260502111444 | 47 | 216 | 2.6 | 7.8 | 0.00 | 0.00 | 0.00 | 80 | 1012.8 |
| 20260502110915 | 47 | 212 | 3.5 | 7.0 | 0.00 | 0.00 | 0.00 | 80 | 1012.9 |
| 20260502110427 | 47 | 219 | 4.3 | 7.0 | 0.00 | 0.00 | 0.00 | 80 | 1012.8 |
| 20260502105919 | 47 | 211 | 4.3 | 7.8 | 0.00 | 0.00 | 0.00 | 79 | 1012.8 |
| 20260502105410 | 47 | 211 | 4.3 | 8.7 | 0.00 | 0.00 | 0.00 | 79 | 1012.8 |
| 20260502104923 | 47 | 204 | 5.2 | 8.7 | 0.00 | 0.00 | 0.00 | 79 | 1012.8 |
| 20260502104418 | 47 | 206 | 5.2 | 8.7 | 0.00 | 0.00 | 0.00 | 79 | 1012.8 |
| 20260502103927 | 47 | 216 | 5.2 | 11.3 | 0.00 | 0.00 | 0.00 | 78 | 1012.6 |
| 20260502103419 | 47 | 205 | 6.1 | 11.3 | 0.00 | 0.00 | 0.00 | 78 | 1012.6 |
| 20260502102911 | 47 | 181 | 4.3 | 8.7 | 0.00 | 0.00 | 0.00 | 78 | 1012.7 |
| 20260502102423 | 47 | 188 | 5.2 | 9.6 | 0.00 | 0.00 | 0.00 | 77 | 1012.8 |
| 20260502101914 | 47 | 204 | 6.1 | 8.7 | 0.00 | 0.00 | 0.00 | 77 | 1012.7 |
| 20260502101427 | 47 | 193 | 5.2 | 7.0 | 0.00 | 0.00 | 0.00 | 77 | 1012.5 |
| 20260502100918 | 47 | 192 | 4.3 | 7.8 | 0.00 | 0.00 | 0.00 | 77 | 1012.5 |
| 20260502100414 | 47 | 193 | 3.5 | 7.8 | 0.00 | 0.00 | 0.00 | 77 | 1012.4 |
| 20260502091414 | 47 | 221 | 4.3 | 7.0 | 0.00 | 0.00 | 0.00 | 78 | 1012.2 |
| 20260502090948 | 47 | 206 | 3.5 | 6.1 | 0.00 | 0.00 | 0.00 | 78 | 1012.2 |
| 20260502090438 | 47 | 184 | 4.3 | 9.6 | 0.00 | 0.00 | 0.00 | 78 | 1012.3 |
| 20260502071415 | 49 | 258 | 2.6 | 6.1 | 0.00 | 0.00 | 0.00 | 69 | 1012.4 |
| 20260502070926 | 49 | 233 | 3.5 | 6.1 | 0.00 | 0.00 | 0.00 | 69 | 1012.4 |
| 20260502070437 | 49 | 237 | 3.5 | 7.0 | 0.00 | 0.00 | 0.00 | 69 | 1012.4 |
| 20260502065927 | 49 | 213 | 2.6 | 7.0 | 0.00 | 0.00 | 0.00 | 68 | 1012.4 |
| 20260502065439 | 50 | 273 | 3.5 | 8.7 | 0.00 | 0.00 | 0.00 | 68 | 1012.5 |
| 20260502064913 | 50 | 243 | 5.2 | 8.7 | 0.00 | 0.00 | 0.00 | 68 | 1012.5 |
| 20260502064424 | 50 | 244 | 5.2 | 8.7 | 0.00 | 0.00 | 0.00 | 68 | 1012.6 |
| 20260502063914 | 50 | 240 | 5.2 | 7.8 | 0.00 | 0.00 | 0.00 | 68 | 1012.6 |
| 20260502063447 | 50 | 246 | 4.3 | 10.4 | 0.00 | 0.00 | 0.00 | 68 | 1012.7 |
| 20260502062916 | 50 | 235 | 7.0 | 10.4 | 0.00 | 0.00 | 0.00 | 68 | 1012.6 |
| 20260502062427 | 50 | 230 | 6.1 | 9.6 | 0.00 | 0.00 | 0.00 | 68 | 1012.6 |
| 20260502061940 | 50 | 235 | 4.3 | 7.8 | 0.00 | 0.00 | 0.00 | 67 | 1012.6 |
| 20260502060921 | 50 | 223 | 4.3 | 7.8 | 0.00 | 0.00 | 0.00 | 67 | 1012.5 |
| 20260502060433 | 49 | 225 | 3.5 | 7.0 | 0.00 | 0.00 | 0.00 | 67 | 1012.5 |
| 20260502055922 | 49 | 235 | 3.5 | 7.8 | 0.00 | 0.00 | 0.00 | 67 | 1012.5 |
| 20260502055417 | 49 | 232 | 3.5 | 7.8 | 0.00 | 0.00 | 0.00 | 67 | 1012.5 |
| 20260502054928 | 49 | 307 | 2.6 | 5.2 | 0.00 | 0.00 | 0.00 | 66 | 1012.4 |
| 20260502054419 | 49 | 214 | 3.5 | 7.0 | 0.00 | 0.00 | 0.00 | 66 | 1012.5 |
| 20260502053911 | 49 | 217 | 3.5 | 6.1 | 0.00 | 0.00 | 0.00 | 66 | 1012.5 |
| 20260502053422 | 49 | 236 | 3.5 | 6.1 | 0.00 | 0.00 | 0.00 | 66 | 1012.6 |
| 20260502052912 | 49 | 231 | 4.3 | 7.0 | 0.00 | 0.00 | 0.00 | 66 | 1012.6 |
| 20260502052423 | 49 | 237 | 4.3 | 7.0 | 0.00 | 0.00 | 0.00 | 66 | 1012.6 |
| 20260502051914 | 50 | 207 | 5.2 | 7.8 | 0.00 | 0.00 | 0.00 | 65 | 1012.7 |
| 20260502051446 | 50 | 204 | 5.2 | 7.8 | 0.00 | 0.00 | 0.00 | 65 | 1012.7 |
| 20260502050920 | 50 | 199 | 2.6 | 5.2 | 0.00 | 0.00 | 0.00 | 65 | 1012.7 |
| 20260502050411 | 50 | 204 | 2.6 | 4.3 | 0.00 | 0.00 | 0.00 | 64 | 1012.6 |
| 20260502045922 | 50 | 199 | 2.6 | 4.3 | 0.00 | 0.00 | 0.00 | 64 | 1012.7 |
| 20260502045412 | 50 | 202 | 3.5 | 6.1 | 0.00 | 0.00 | 0.00 | 63 | 1012.6 |
| 20260502044923 | 50 | 249 | 3.5 | 6.1 | 0.00 | 0.00 | 0.00 | 63 | 1012.5 |
| 20260502044413 | 50 | 213 | 2.6 | 7.8 | 0.00 | 0.00 | 0.00 | 62 | 1012.6 |
| 20260502043924 | 50 | 252 | 4.3 | 8.7 | 0.00 | 0.00 | 0.00 | 62 | 1012.6 |
| 20260502043415 | 51 | 233 | 5.2 | 8.7 | 0.00 | 0.00 | 0.00 | 62 | 1012.6 |
| 20260502042946 | 51 | 249 | 4.3 | 7.8 | 0.00 | 0.00 | 0.00 | 61 | 1012.7 |
| 20260502042419 | 51 | 228 | 6.1 | 11.3 | 0.00 | 0.00 | 0.00 | 61 | 1012.7 |
| 20260502041910 | 51 | 216 | 6.1 | 11.3 | 0.00 | 0.00 | 0.00 | 60 | 1012.8 |
| 20260502041421 | 51 | 230 | 7.0 | 9.6 | 0.00 | 0.00 | 0.00 | 60 | 1012.7 |
| 20260502040912 | 51 | 231 | 7.0 | 9.6 | 0.00 | 0.00 | 0.00 | 59 | 1012.6 |
| 20260502040423 | 51 | 235 | 6.1 | 9.6 | 0.00 | 0.00 | 0.00 | 58 | 1012.7 |
| 20260502035935 | 51 | 235 | 6.1 | 10.4 | 0.00 | 0.00 | 0.00 | 58 | 1012.7 |
| 20260502035425 | 51 | 240 | 7.0 | 10.4 | 0.00 | 0.00 | 0.00 | 57 | 1012.7 |
| 20260502034915 | 51 | 240 | 6.1 | 9.6 | 0.00 | 0.00 | 0.00 | 57 | 1012.5 |
| 20260502034425 | 52 | 238 | 6.1 | 9.6 | 0.00 | 0.00 | 0.00 | 57 | 1012.6 |
| 20260502033920 | 52 | 247 | 7.0 | 12.2 | 0.00 | 0.00 | 0.00 | 56 | 1012.6 |
| 20260502033412 | 52 | 247 | 7.8 | 12.2 | 0.00 | 0.00 | 0.00 | 56 | 1012.5 |
| 20260502032922 | 52 | 245 | 7.0 | 12.2 | 0.00 | 0.00 | 0.00 | 56 | 1012.7 |
| 20260502032434 | 52 | 242 | 7.0 | 12.2 | 0.00 | 0.00 | 0.00 | 55 | 1012.7 |
| 20260502031922 | 52 | 239 | 7.8 | 13.9 | 0.00 | 0.00 | 0.00 | 54 | 1012.7 |
| 20260502031433 | 52 | 219 | 7.8 | 13.9 | 0.00 | 0.00 | 0.00 | 54 | 1012.7 |
| 20260502030924 | 52 | 240 | 7.8 | 13.0 | 0.00 | 0.00 | 0.00 | 53 | 1012.7 |
| 20260502030435 | 52 | 252 | 7.8 | 13.9 | 0.00 | 0.00 | 0.00 | 52 | 1012.6 |
| 20260502025925 | 53 | 237 | 7.8 | 13.9 | 0.00 | 0.00 | 0.00 | 51 | 1012.3 |
| 20260502025416 | 53 | 239 | 8.7 | 13.9 | 0.00 | 0.00 | 0.00 | 51 | 1012.5 |
| 20260502024948 | 53 | 247 | 7.8 | 13.0 | 0.00 | 0.00 | 0.00 | 50 | 1012.6 |
| 20260502024438 | 53 | 242 | 9.6 | 13.0 | 0.00 | 0.00 | 0.00 | 50 | 1012.6 |
| 20260502023911 | 53 | 249 | 7.8 | 12.2 | 0.00 | 0.00 | 0.00 | 49 | 1012.4 |
| 20260502023422 | 53 | 234 | 7.8 | 13.0 | 0.00 | 0.00 | 0.00 | 48 | 1012.5 |
| 20260502022913 | 53 | 249 | 9.6 | 13.0 | 0.00 | 0.00 | 0.00 | 48 | 1012.5 |
| 20260502022425 | 53 | 209 | 8.7 | 15.6 | 0.00 | 0.00 | 0.00 | 47 | 1012.5 |
| 20260502021916 | 54 | 209 | 8.7 | 12.2 | 0.00 | 0.00 | 0.00 | 45 | 1012.5 |
| 20260502021408 | 54 | 248 | 7.0 | 10.4 | 0.00 | 0.00 | 0.00 | 43 | 1012.5 |
| 20260502020920 | 56 | 206 | 7.0 | 10.4 | 0.00 | 0.00 | 0.00 | 41 | 1012.4 |
| 20260502020412 | 57 | 233 | 4.3 | 6.1 | 0.00 | 0.00 | 0.00 | 36 | 1012.2 |
| 20260502015928 | 57 | 234 | 3.5 | 5.2 | 0.00 | 0.00 | 0.00 | 36 | 1012.1 |
| 20260502015419 | 57 | 237 | 3.5 | 4.3 | 0.00 | 0.00 | 0.00 | 35 | 1012.1 |
| 20260502014911 | 57 | 233 | 3.5 | 3.5 | 0.00 | 0.00 | 0.00 | 35 | 1012.1 |
| 20260502014423 | 57 | 242 | 3.5 | 4.3 | 0.00 | 0.00 | 0.00 | 35 | 1012.1 |
| 20260502013915 | 57 | 243 | 4.3 | 4.3 | 0.00 | 0.00 | 0.00 | 35 | 1012.1 |
| 20260502013427 | 57 | 249 | 4.3 | 4.3 | 0.00 | 0.00 | 0.00 | 35 | 1012.2 |
| 20260502012919 | 57 | 249 | 4.3 | 5.2 | 0.00 | 0.00 | 0.00 | 35 | 1012.2 |
| 20260502012411 | 57 | 249 | 3.5 | 5.2 | 0.00 | 0.00 | 0.00 | 35 | 1012.2 |
| 20260502011927 | 57 | 249 | 4.3 | 5.2 | 0.00 | 0.00 | 0.00 | 35 | 1012.2 |
| 20260502011418 | 57 | 242 | 3.5 | 4.3 | 0.00 | 0.00 | 0.00 | 35 | 1012.0 |
| 20260502010909 | 57 | 244 | 3.5 | 4.3 | 0.00 | 0.00 | 0.00 | 35 | 1012.0 |
| 20260502010421 | 57 | 252 | 2.6 | 3.5 | 0.00 | 0.00 | 0.00 | 35 | 1011.9 |
| 20260502005913 | 58 | 265 | 3.5 | 3.5 | 0.00 | 0.00 | 0.00 | 35 | 1011.7 |
| 20260502005425 | 58 | 268 | 2.6 | 3.5 | 0.00 | 0.00 | 0.00 | 35 | 1011.7 |
| 20260502004917 | 57 | 275 | 1.7 | 2.6 | 0.00 | 0.00 | 0.00 | 35 | 1011.7 |
| 20260502004449 | 57 | 297 | 0.9 | 1.7 | 0.00 | 0.00 | 0.00 | 35 | 1011.6 |
| 20260502003919 | 57 | 298 | 1.7 | 1.7 | 0.00 | 0.00 | 0.00 | 35 | 1011.6 |
| 20260502003415 | 58 | 291 | 0.9 | 2.6 | 0.00 | 0.00 | 0.00 | 35 | 1011.5 |
| 20260502002927 | 57 | 281 | 1.7 | 2.6 | 0.00 | 0.00 | 0.00 | 35 | 1011.4 |
| 20260502002418 | 57 | 275 | 1.7 | 2.6 | 0.00 | 0.00 | 0.00 | 35 | 1011.4 |
| 20260502001910 | 57 | 295 | 0.9 | 3.5 | 0.00 | 0.00 | 0.00 | 35 | 1011.2 |
| 20260502001422 | 58 | 286 | 1.7 | 3.5 | 0.00 | 0.00 | 0.00 | 35 | 1011.0 |
| 20260502000935 | 58 | 276 | 1.7 | 3.5 | 0.00 | 0.00 | 0.00 | 35 | 1011.0 |